DW1449 Weather Reports


Display with metric or nautical units.
time (UTC)temp
F
wind
direction
speed
MPH
gust
MPH
rain 1hr
in
rain 24hr
in
rain mn
in
humidity
%
barometer
mb
20260906163101 61 0.0 0.0 0.00 0.00 0.00 70 1023.8
20260906161553 61 0.0 0.0 0.00 0.00 0.00 69 1023.5
20260906160053 62 0.0 0.0 0.00 0.00 0.00 68 1023.6
20260906154549 61 0.0 0.0 0.00 0.00 0.00 71 1023.5
20260906153055 61 0.0 0.0 0.00 0.00 0.00 71 1023.4
20260906151556 61 0.0 0.0 0.00 0.00 0.00 71 1023.4
20260906150100 62 0.0 0.0 0.00 0.00 0.00 69 1023.3
20260906144608 62 0.0 0.0 0.00 0.00 0.00 69 1023.2
20260906143106 62 0.0 0.0 0.00 0.00 0.00 71 1023.0
20260906141551 61 0.0 0.0 0.00 0.00 0.00 74 1023.1
20260906140056 61 0.0 0.0 0.00 0.00 0.00 74 1023.1
20260906134553 61 0.0 0.0 0.00 0.00 0.00 73 1023.0
20260906133105 61 0.0 0.0 0.00 0.00 0.00 76 1023.0
20260906131550 61 0.0 0.0 0.00 0.00 0.00 77 1023.0
20260906130100 61 0.0 0.0 0.00 0.00 0.00 75 1023.0
20260906124553 61 0.0 0.0 0.00 0.00 0.00 72 1022.9
20260906123052 62 0.0 0.0 0.00 0.00 0.00 70 1022.9
20260906121548 62 0.0 0.0 0.00 0.00 0.00 73 1022.7
20260906120057 62 0.0 0.0 0.00 0.00 0.00 75 1022.7
20260906114600 63 0.0 0.0 0.00 0.00 0.00 73 1022.5
20260906113054 62 0.0 0.0 0.00 0.00 0.00 73 1022.5
20260906111548 61 0.0 0.0 0.00 0.00 0.00 79 1022.5
20260906110052 61 0.0 0.0 0.00 0.00 0.00 79 1022.4
20260906104557 61 0.0 0.0 0.00 0.00 0.00 77 1022.3
20260906103058 61 0.0 0.0 0.00 0.00 0.00 79 1022.0
20260906101554 60 0.0 0.0 0.00 0.00 0.00 78 1021.9
20260906100051 60 0.0 0.0 0.00 0.00 0.00 80 1021.7
20260906094615 59 0.0 0.0 0.00 0.01 0.00 82 1021.5
20260906093129 60 0.0 0.0 0.00 0.01 0.00 79 1021.5
20260906091603 60 0.0 0.0 0.00 0.01 0.00 80 1021.1
20260906090054 59 0.0 0.0 0.00 0.01 0.00 82 1020.9
20260906084549 59 0.0 0.0 0.00 0.01 0.00 83 1021.0
20260906083055 59 0.0 0.0 0.00 0.01 0.00 83 1020.9
20260906081602 59 0.0 0.0 0.00 0.01 0.00 83 1020.7
20260906080056 58 0.0 0.0 0.00 0.01 0.00 84 1020.5
20260906074554 58 0.0 0.0 0.00 0.01 0.00 87 1020.3
20260906073057 57 0.0 0.0 0.00 0.01 0.00 88 1020.3
20260906071555 58 0.0 0.0 0.00 0.01 0.00 87 1020.0
20260906064555 58 0.0 0.0 0.00 0.01 0.00 86 1019.5
20260906063104 58 0.0 0.0 0.00 0.01 0.00 86 1019.3
20260906061553 58 0.0 0.0 0.00 0.01 0.00 86 1019.1
20260906054607 58 0.0 0.0 0.00 0.01 0.00 87 1018.9
20260906053051 58 0.0 0.0 0.00 0.01 0.00 88 1018.7
20260906051604 57 0.0 0.0 0.00 0.01 0.00 88 1018.6
20260906050105 57 0.0 0.0 0.00 0.01 0.00 88 1018.4
20260906044557 58 0.0 0.0 0.00 0.03 0.00 88 1018.2
20260906043103 57 0.0 0.0 0.00 0.03 0.00 88 1018.1
20260906041553 57 0.0 0.0 0.00 0.03 0.00 87 1017.6
20260906034550 57 0.0 0.0 0.00 0.03 0.00 88 1017.2
20260906033100 57 0.0 0.0 0.00 0.03 0.00 88 1016.9
20260906031553 57 0.0 0.0 0.00 0.03 0.00 88 1016.8
20260906030052 57 0.0 0.0 0.00 0.03 0.00 88 1016.7
20260906024603 58 0.0 0.0 0.00 0.03 0.00 88 1016.6
20260906023052 58 0.0 0.0 0.00 0.03 0.00 88 1016.4
20260906021554 58 0.0 0.0 0.00 0.03 0.00 87 1016.2
20260906020049 58 0.0 0.0 0.00 0.03 0.00 88 1016.0
20260906014634 58 0.0 0.0 0.00 0.08 0.00 87 1015.9
20260906013059 58 0.0 0.0 0.00 0.08 0.00 87 1015.6
20260906011602 58 0.0 0.0 0.00 0.08 0.00 87 1015.6
20260906010052 58 0.0 0.0 0.00 0.08 0.00 87 1015.3
20260906004610 58 0.0 0.0 0.00 0.08 0.00 87 1015.1
20260906003112 58 0.0 0.0 0.00 0.08 0.00 87 1014.9
20260906001553 58 0.0 0.0 0.00 0.08 0.00 87 1014.6
20260905234609 58 0.0 0.0 0.00 0.08 0.00 87 1014.1
20260905233054 58 0.0 0.0 0.00 0.08 0.00 87 1013.9
20260905231554 58 0.0 0.0 0.00 0.08 0.00 87 1013.9
20260905230050 58 0.0 0.0 0.00 0.08 0.00 87 1013.8
20260905224609 58 0.0 0.0 0.00 0.08 0.00 87 1013.6
20260905223054 58 0.0 0.0 0.00 0.08 0.00 88 1013.4
20260905221610 58 0.0 0.0 0.00 0.08 0.00 88 1013.1
20260905220059 58 0.0 0.0 0.00 0.08 0.00 88 1013.0
20260905214600 57 0.0 0.0 0.00 0.08 0.08 88 1012.5
20260905213101 57 0.0 0.0 0.00 0.08 0.08 89 1012.2
20260905211600 57 0.0 0.0 0.00 0.08 0.08 88 1012.1
20260905210057 57 0.0 0.0 0.00 0.08 0.08 86 1011.8
20260905204550 57 0.0 0.0 0.00 0.10 0.08 85 1011.6
20260905203056 57 0.0 0.0 0.00 0.10 0.08 85 1011.5
20260905201612 57 0.0 0.0 0.00 0.10 0.08 85 1011.2
20260905200054 58 0.0 0.0 0.00 0.10 0.08 82 1011.0
20260905194550 58 0.0 0.0 0.00 0.18 0.08 83 1010.8
20260905193108 58 0.0 0.0 0.00 0.18 0.08 82 1010.9
20260905191553 58 0.0 0.0 0.00 0.18 0.08 81 1010.6
20260905190051 59 0.0 0.0 0.00 0.18 0.08 79 1011.0
20260905184602 59 0.0 0.0 0.00 0.18 0.08 78 1010.6
20260905183054 59 0.0 0.0 0.00 0.18 0.08 77 1010.4
20260905181608 59 0.0 0.0 0.00 0.18 0.08 77 1010.5
20260905180052 59 0.0 0.0 0.00 0.18 0.08 76 1010.3
20260905174603 59 0.0 0.0 0.00 0.18 0.08 76 1010.4
20260905173056 59 0.0 0.0 0.00 0.18 0.08 76 1010.3
20260905171552 60 0.0 0.0 0.00 0.18 0.08 76 1010.1
20260905170050 60 0.0 0.0 0.00 0.18 0.08 75 1010.0
20260905164557 60 0.0 0.0 0.00 0.18 0.08 77 1009.8